W7KKE-3 Weather Reports


Display with metric or nautical units.
time (UTC)temp
F
wind
direction
speed
MPH
gust
MPH
rain 1hr
in
rain 24hr
in
rain mn
in
humidity
%
barometer
mb
20171022205054 59 229 5.0 16.0 0.00 1.91 0.67 100 1027.5
20171022204553 59 159 6.0 16.0 0.00 1.91 0.67 100 1027.4
20171022204053 59 165 6.0 16.0 0.00 1.91 0.67 100 1027.3
20171022203553 58 148 7.0 15.0 0.00 1.91 0.67 100 1027.3
20171022203053 59 154 6.0 15.0 0.00 1.91 0.67 100 1027.4
20171022202552 59 163 12.0 17.0 0.00 1.91 0.67 100 1027.3
20171022202053 59 161 9.0 17.0 0.00 1.91 0.67 100 1027.3
20171022201553 59 170 6.0 17.0 0.00 1.91 0.67 100 1027.4
20171022201052 59 155 6.0 16.0 0.00 1.91 0.67 100 1027.2
20171022200553 59 159 7.0 16.0 0.00 1.91 0.67 100 1027.2
20171022200052 58 166 7.0 19.0 0.00 2.06 0.67 100 1027.1
20171022195553 58 162 9.0 19.0 0.00 2.06 0.67 100 1027.2
20171022195053 59 142 9.0 19.0 0.00 2.06 0.67 100 1027.0
20171022194552 59 193 7.0 18.0 0.00 2.06 0.67 100 1027.0
20171022194053 59 154 8.0 18.0 0.00 2.06 0.67 100 1027.2
20171022193553 59 169 9.0 18.0 0.00 2.06 0.67 100 1027.1
20171022193053 59 144 7.0 20.0 0.00 2.06 0.67 100 1027.1
20171022192552 59 183 8.0 20.0 0.00 2.06 0.67 100 1026.9
20171022192053 59 169 9.0 20.0 0.00 2.06 0.67 100 1026.9
20171022191552 59 103 9.0 15.0 0.00 2.06 0.67 100 1026.7
20171022191052 59 162 9.0 13.0 0.00 2.06 0.67 100 1026.6
20171022190553 59 126 6.0 17.0 0.00 2.06 0.67 100 1026.6
20171022190052 59 187 6.0 17.0 0.00 2.23 0.67 100 1026.5
20171022185553 59 180 6.0 17.0 0.00 2.23 0.67 100 1026.5
20171022185053 59 140 8.0 15.0 0.00 2.23 0.67 100 1026.4
20171022184552 58 184 7.0 19.0 0.00 2.23 0.67 100 1026.4
20171022184053 58 180 8.0 19.0 0.00 2.23 0.67 100 1026.2
20171022183553 58 144 8.0 19.0 0.00 2.23 0.67 100 1026.2
20171022183052 57 137 10.0 18.0 0.00 2.23 0.67 100 1026.2
20171022182552 58 149 11.0 18.0 0.00 2.23 0.67 100 1026.2
20171022182053 58 182 9.0 17.0 0.00 2.23 0.67 100 1026.1
20171022181553 57 155 7.0 17.0 0.00 2.23 0.67 100 1026.0
20171022181052 58 126 10.0 15.0 0.00 2.23 0.67 100 1025.9
20171022180553 58 151 6.0 21.0 0.00 2.23 0.67 100 1025.8
20171022180052 57 155 7.0 21.0 0.00 2.37 0.67 100 1025.7
20171022175552 57 154 8.0 21.0 0.00 2.37 0.67 100 1025.6
20171022175053 58 169 8.0 18.0 0.00 2.37 0.67 100 1025.4
20171022174553 57 138 6.0 19.0 0.00 2.37 0.67 100 1025.3
20171022174052 58 173 9.0 19.0 0.00 2.37 0.67 100 1025.2
20171022173553 58 161 8.0 19.0 0.00 2.37 0.67 100 1025.2
20171022173053 57 173 10.0 18.0 0.00 2.37 0.67 100 1025.0
20171022172552 57 175 9.0 17.0 0.00 2.37 0.67 100 1024.9
20171022172053 57 161 10.0 19.0 0.00 2.37 0.67 100 1024.9
20171022171552 57 144 11.0 19.0 0.00 2.37 0.67 100 1024.7
20171022171052 57 148 6.0 19.0 0.00 2.37 0.67 100 1024.6
20171022170553 57 147 9.0 20.0 0.00 2.37 0.67 100 1024.5
20171022170052 57 186 5.0 20.0 0.00 2.52 0.67 100 1024.3
20171022165553 57 135 8.0 20.0 0.00 2.52 0.67 100 1024.3
20171022164052 57 152 8.0 20.0 0.00 2.52 0.67 100 1024.1
20171022163553 57 124 8.0 20.0 0.00 2.52 0.67 100 1023.9
20171022163052 57 207 5.0 20.0 0.00 2.52 0.67 100 1023.8
20171022162552 57 163 10.0 19.0 0.00 2.52 0.67 100 1023.8
20171022162053 57 154 7.0 19.0 0.00 2.52 0.67 100 1023.6
20171022161552 57 173 6.0 19.0 0.00 2.52 0.67 100 1023.4
20171022155553 56 166 8.0 16.0 0.00 2.62 0.67 100 1023.1
20171022155053 57 131 4.0 18.0 0.00 2.62 0.67 100 1023.0
20171022154552 57 147 6.0 18.0 0.00 2.62 0.67 100 1023.1
20171022154052 57 165 7.0 18.0 0.00 2.62 0.67 100 1023.0
20171022153553 57 179 8.0 16.0 0.00 2.62 0.67 100 1023.0
20171022153052 57 140 6.0 16.0 0.00 2.62 0.67 100 1022.9
20171022152552 57 158 9.0 15.0 0.00 2.62 0.67 100 1022.6
20171022152053 57 180 6.0 15.0 0.00 2.62 0.67 100 1022.5
20171022150053 57 152 8.0 19.0 0.00 2.74 0.67 100 1021.9
20171022145552 57 123 8.0 14.0 0.00 2.74 0.67 100 1021.8
20171022145053 57 162 9.0 19.0 0.00 2.74 0.67 100 1021.8
20171022144552 56 179 7.0 19.0 0.00 2.74 0.67 100 1021.7
20171022144053 57 154 10.0 19.0 0.00 2.74 0.67 100 1021.5
20171022143553 57 180 9.0 18.0 0.00 2.74 0.67 100 1021.5
20171022143053 56 163 8.0 18.0 0.00 2.74 0.67 100 1021.4
20171022142552 57 175 10.0 15.0 0.00 2.74 0.67 100 1021.3
20171022142053 57 168 7.0 15.0 0.00 2.74 0.67 100 1021.2
20171022141552 57 189 9.0 12.0 0.00 2.74 0.67 100 1021.1
20171022141052 57 214 5.0 12.0 0.00 2.74 0.67 100 1021.1
20171022140553 57 151 3.0 12.0 0.00 2.74 0.67 100 1020.9
20171022140052 57 144 6.0 10.0 0.00 2.88 0.67 100 1020.9
20171022135552 57 212 3.0 10.0 0.00 2.88 0.67 100 1020.9
20171022135054 57 163 5.0 10.0 0.00 2.88 0.67 100 1020.9
20171022134552 57 165 6.0 15.0 0.00 2.88 0.67 100 1020.8
20171022134052 57 151 7.0 15.0 0.00 2.88 0.67 100 1020.8
20171022133553 57 172 6.0 15.0 0.00 2.88 0.67 100 1020.7
20171022133052 57 138 8.0 18.0 0.00 2.88 0.67 100 1020.6
20171022132553 57 140 8.0 18.0 0.00 2.88 0.67 100 1020.6
20171022132053 57 148 6.0 18.0 0.00 2.88 0.67 100 1020.4
20171022131552 57 165 8.0 16.0 0.00 2.88 0.67 100 1020.4
20171022131052 57 142 8.0 16.0 0.00 2.88 0.67 100 1020.3
20171022125053 57 148 4.0 11.0 0.00 2.94 0.67 100 1019.9
20171022124553 57 179 5.0 10.0 0.00 2.94 0.67 100 1019.9
20171022124052 57 144 3.0 10.0 0.01 2.94 0.67 100 1019.8
20171022123553 57 156 4.0 9.0 0.01 2.94 0.67 100 1019.8
20171022123052 57 168 5.0 9.0 0.02 2.94 0.67 100 1019.7
20171022122553 57 156 3.0 9.0 0.02 2.94 0.67 100 1019.6
20171022122053 57 161 3.0 9.0 0.03 2.94 0.67 100 1019.5
20171022121553 57 224 4.0 13.0 0.03 2.94 0.67 100 1019.4
20171022121053 57 238 3.0 13.0 0.04 2.94 0.67 100 1019.4
20171022120552 57 245 2.0 13.0 0.04 2.94 0.67 100 1019.3
20171022120052 57 217 5.0 14.0 0.05 2.96 0.67 100 1019.1
20171022115553 57 232 7.0 14.0 0.05 2.96 0.67 100 1018.9
20171022115053 57 226 5.0 14.0 0.06 2.96 0.67 100 1018.8
20171022114553 57 238 10.0 13.0 0.06 2.96 0.67 100 1018.7
20171022114053 57 236 7.0 13.0 0.06 2.96 0.66 100 1018.7
20171022113552 57 231 7.0 15.0 0.06 2.96 0.66 100 1018.6
20171022113052 57 211 6.0 15.0 0.06 2.96 0.66 100 1018.2
20171022112552 57 239 3.0 15.0 0.06 2.96 0.65 100 1017.9
20171022112054 57 264 4.0 14.0 0.06 2.96 0.64 100 1018.1
20171022111553 57 250 5.0 14.0 0.06 2.96 0.64 100 1018.1
20171022111053 57 225 5.0 14.0 0.07 2.96 0.64 100 1018.0
20171022110552 57 218 9.0 12.0 0.07 2.96 0.64 100 1017.9
20171022110053 57 221 5.0 12.0 0.09 2.95 0.63 100 1017.6
20171022105553 57 239 4.0 12.0 0.09 2.95 0.62 100 1017.6
20171022105053 57 250 6.0 19.0 0.12 2.95 0.62 100 1017.6
20171022104553 57 233 3.0 19.0 0.12 2.95 0.61 100 1017.4
20171022104053 57 231 8.0 19.0 0.13 2.95 0.61 100 1017.4
20171022103552 57 240 7.0 15.0 0.13 2.95 0.61 100 1017.4
20171022103053 57 284 7.0 15.0 0.13 2.95 0.60 100 1017.3
20171022102553 57 252 6.0 15.0 0.13 2.95 0.60 100 1017.3
20171022102053 57 200 6.0 12.0 0.14 2.95 0.59 100 1017.3
20171022101553 57 238 6.0 19.0 0.14 2.95 0.58 100 1017.2
20171022101054 57 184 9.0 19.0 0.14 2.95 0.58 100 1017.4
20171022100552 57 214 6.0 19.0 0.14 2.95 0.57 100 1017.2
20171022100053 57 204 12.0 18.0 0.13 2.88 0.56 100 1017.1
20171022095553 57 219 5.0 18.0 0.13 2.88 0.54 100 1016.8
20171022095058 57 235 11.0 16.0 0.11 2.88 0.52 100 1016.6
20171022094553 57 212 7.0 16.0 0.11 2.88 0.51 100 1016.6
20171022094053 57 211 6.0 16.0 0.12 2.88 0.49 100 1016.5
20171022093552 57 219 8.0 15.0 0.12 2.88 0.48 100 1016.5
20171022093053 57 191 3.0 13.0 0.13 2.88 0.47 100 1016.5
20171022092553 57 235 5.0 13.0 0.13 2.88 0.47 100 1016.6
20171022092053 57 214 5.0 28.0 0.13 2.88 0.46 100 1016.7
20171022091553 58 226 11.0 28.0 0.13 2.88 0.45 100 1016.8
20171022091053 57 228 11.0 28.0 0.13 2.88 0.43 100 1016.8
20171022090552 57 215 12.0 21.0 0.13 2.88 0.42 100 1016.9
20171022090053 57 214 12.0 18.0 0.14 2.91 0.41 100 1016.7
20171022085553 58 243 6.0 22.0 0.14 2.91 0.40 100 1016.5
20171022085053 58 222 6.0 22.0 0.18 2.91 0.39 100 1016.5
20171022084553 58 210 9.0 22.0 0.18 2.91 0.39 100 1016.6
20171022084053 58 231 9.0 21.0 0.21 2.91 0.37 100 1016.3
20171022083552 58 246 10.0 30.0 0.21 2.91 0.36 100 1016.3
20171022083053 58 232 9.0 30.0 0.24 2.91 0.34 100 1016.2
20171022082553 57 222 14.0 30.0 0.24 2.91 0.34 100 1016.1
20171022082053 57 205 10.0 28.0 0.25 2.91 0.33 100 1016.0
20171022081553 57 152 13.0 28.0 0.25 2.91 0.32 100 1015.8
20171022081053 57 182 11.0 32.0 0.26 2.91 0.31 100 1015.4
20171022080552 57 152 16.0 32.0 0.26 2.91 0.30 100 1014.9
20171022080052 57 151 16.0 32.0 0.25 2.80 0.29 100 1014.6
20171022075553 57 180 16.0 30.0 0.25 2.80 0.27 100 1014.5
20171022075053 58 166 14.0 28.0 0.22 2.80 0.25 100 1014.5
20171022074552 57 159 12.0 28.0 0.22 2.80 0.22 100 1014.4
20171022074052 57 151 16.0 34.0 0.19 2.80 0.19 100 1014.3
20171022073553 57 177 16.0 34.0 0.19 2.80 0.16 100 1014.1
20171022073052 57 152 17.0 34.0 0.17 2.80 0.13 100 1014.2
20171022072552 57 169 16.0 35.0 0.17 2.80 0.10 100 1014.1
20171022072053 57 177 18.0 35.0 0.18 2.80 0.08 100 1014.1
20171022071553 57 170 12.0 35.0 0.18 2.80 0.07 100 1014.0
20171022071052 58 149 16.0 36.0 0.19 2.80 0.06 100 1014.0
20171022070552 57 173 16.0 36.0 0.19 2.80 0.04 100 1013.9
20171022070052 57 148 16.0 36.0 0.20 2.81 0.02 100 1013.9
20171022065552 57 156 19.0 34.0 0.20 2.81 2.81 100 1013.8
20171022065053 58 147 16.0 34.0 0.21 2.79 2.79 100 1013.7
20171022064552 57 176 16.0 33.0 0.21 2.77 2.77 100 1013.8
20171022064052 58 161 18.0 33.0 0.21 2.75 2.75 100 1013.7
20171022063553 58 134 16.0 33.0 0.21 2.74 2.74 100 1013.5
20171022063053 58 156 17.0 38.0 0.21 2.73 2.73 100 1013.5
20171022062552 58 116 17.0 38.0 0.21 2.71 2.71 100 1013.5
20171022062053 58 147 19.0 38.0 0.20 2.70 2.70 100 1013.2
20171022061552 58 163 20.0 37.0 0.20 2.68 2.68 100 1013.3
20171022061052 58 162 10.0 43.0 0.18 2.66 2.65 100 1013.3
20171022060553 58 159 17.0 43.0 0.18 2.66 2.64 100 1013.1
20171022060052 58 169 18.0 43.0 0.18 2.62 2.62 100 1013.0
20171022055552 58 166 16.0 39.0 0.18 2.60 2.60 100 1013.0
20171022055053 58 144 17.0 39.0 0.17 2.58 2.58 100 1013.0
20171022054553 58 200 15.0 35.0 0.17 2.56 2.56 100 1013.1
20171022054052 58 162 11.0 39.0 0.18 2.54 2.54 100 1013.1
20171022053552 58 142 13.0 39.0 0.18 2.52 2.52 100 1013.1
20171022053052 58 138 24.0 39.0 0.17 2.51 2.51 100 1013.1
20171022052552 58 169 18.0 36.0 0.17 2.50 2.50 100 1013.2
20171022052053 58 162 18.0 36.0 0.16 2.48 2.48 100 1013.0
20171022051552 58 127 15.0 36.0 0.16 2.48 2.47 100 1013.0
20171022051052 58 176 18.0 35.0 0.14 2.48 2.46 100 1013.1
20171022050553 58 175 16.0 31.0 0.14 2.48 2.45 100 1013.1
20171022050052 58 161 15.0 37.0 0.12 2.43 2.43 100 1013.1
20171022045552 58 141 15.0 37.0 0.12 2.42 2.42 100 1013.0
20171022045053 58 149 17.0 37.0 0.09 2.40 2.40 100 1013.1
20171022044552 58 161 17.0 32.0 0.09 2.39 2.39 100 1013.2
20171022044052 58 165 14.0 40.0 0.06 2.37 2.37 100 1013.0
20171022043552 58 170 13.0 40.0 0.06 2.36 2.34 100 1012.9
20171022043052 58 141 17.0 40.0 0.06 2.36 2.33 100 1012.8
20171022042552 58 147 15.0 36.0 0.06 2.36 2.32 100 1012.7
20171022042052 58 154 15.0 36.0 0.07 2.36 2.31 100 1012.9
20171022041552 58 142 18.0 42.0 0.07 2.36 2.31 100 1012.8
20171022041052 58 179 13.0 42.0 0.09 2.36 2.30 100 1012.6
20171022040552 58 159 13.0 42.0 0.09 2.36 2.30 100 1012.5
20171022040052 58 154 20.0 36.0 0.09 2.30 2.30 100 1012.5
20171022035552 58 156 18.0 36.0 0.09 2.29 2.29 100 1012.8
20171022033553 58 138 17.0 41.0 0.08 2.28 2.28 100 1013.0
20171022033052 58 175 16.0 41.0 0.06 2.27 2.27 100 1012.9
20171022032552 59 165 18.0 44.0 0.06 2.27 2.27 100 1012.7
20171022032053 58 196 12.0 44.0 0.03 2.27 2.26 100 1012.7
20171022031552 58 148 17.0 44.0 0.03 2.27 2.24 100 1012.7
20171022031052 59 163 22.0 42.0 0.02 2.27 2.23 100 1012.8
20171022030552 58 159 20.0 42.0 0.02 2.27 2.22 100 1012.9
20171022030052 59 140 22.0 41.0 0.01 2.25 2.21 100 1012.8
20171022025552 58 134 15.0 39.0 0.01 2.25 2.20 100 1013.0
20171022025052 58 140 13.0 34.0 0.02 2.25 2.20 100 1013.0
20171022024552 58 177 18.0 37.0 0.02 2.25 2.20 100 1013.0
20171022024051 58 141 20.0 37.0 0.03 2.25 2.20 100 1013.0
20171022023552 58 161 16.0 37.0 0.03 2.25 2.20 100 1013.0
20171022023051 58 155 14.0 35.0 0.03 2.25 2.20 100 1013.1
20171022022552 58 175 16.0 40.0 0.03 2.25 2.20 100 1012.9
20171022022052 58 127 15.0 40.0 0.05 2.25 2.20 100 1013.0
20171022021552 58 165 15.0 40.0 0.05 2.25 2.20 100 1013.0
20171022015551 58 177 14.0 34.0 0.10 2.30 2.19 100 1012.6
20171022015052 58 156 16.0 34.0 0.13 2.30 2.19 100 1012.6
20171022014552 58 173 18.0 39.0 0.13 2.30 2.18 100 1012.6
20171022014052 58 154 15.0 39.0 0.15 2.30 2.18 100 1012.6
20171022013552 58 175 12.0 39.0 0.15 2.30 2.17 100 1012.7
20171022013052 58 172 11.0 35.0 0.18 2.30 2.17 100 1012.5
20171022012552 58 117 19.0 34.0 0.18 2.30 2.17 100 1012.8
20171022012052 58 159 15.0 32.0 0.19 2.30 2.16 100 1012.4
20171022011552 58 179 19.0 42.0 0.19 2.30 2.16 100 1012.5
20171022011051 58 154 18.0 42.0 0.20 2.30 2.15 100 1012.4
20171022010552 58 161 17.0 42.0 0.20 2.30 2.14 100 1012.3
20171022010052 59 163 18.0 41.0 0.21 2.12 2.12 100 1012.2
20171022005552 58 165 15.0 41.0 0.21 2.11 2.10 100 1012.2
20171022005052 58 162 26.0 44.0 0.22 2.11 2.08 100 1012.3
20171022004551 58 154 16.0 44.0 0.22 2.11 2.06 100 1012.0
20171022004051 58 152 13.0 44.0 0.22 2.11 2.05 100 1012.1
20171022003552 58 163 16.0 42.0 0.22 2.11 2.03 100 1012.2
20171022003052 58 168 11.0 34.0 0.25 2.11 2.01 100 1012.1
20171022002551 58 175 17.0 34.0 0.25 2.11 2.00 100 1012.1
20171022002052 59 152 14.0 34.0 0.23 2.11 1.99 100 1012.0
20171022001552 59 152 14.0 34.0 0.23 2.11 1.97 100 1012.1
20171022001051 59 148 20.0 34.0 0.21 2.11 1.96 100 1012.2
20171022000552 59 158 17.0 33.0 0.21 2.11 1.94 100 1012.2
20171022000052 58 222 14.0 38.0 0.17 1.92 1.92 100 1012.1
20171021235551 59 142 19.0 38.0 0.17 1.90 1.89 100 1012.2
20171021235052 58 147 14.0 38.0 0.12 1.90 1.87 100 1012.2
20171021234551 58 165 15.0 36.0 0.12 1.90 1.85 100 1012.3
20171021234051 58 170 13.0 36.0 0.09 1.90 1.82 100 1012.3
20171021233552 58 156 14.0 36.0 0.09 1.90 1.80 100 1012.2
20171021233052 58 159 14.0 38.0 0.03 1.90 1.79 100 1012.1
20171021232551 59 163 16.0 38.0 0.03 1.90 1.76 100 1012.3
20171021232052 58 184 16.0 38.0 0.03 1.90 1.74 100 1012.3
20171021231551 59 180 12.0 35.0 0.03 1.90 1.73 100 1012.4
20171021231052 58 169 15.0 35.0 0.03 1.90 1.72 100 1012.2
20171021225052 59 147 19.0 35.0 0.07 1.87 1.71 100 1011.7
20171021224551 59 165 20.0 35.0 0.07 1.87 1.71 100 1011.8
20171021224052 59 173 12.0 33.0 0.08 1.87 1.71 100 1011.8
20171021223552 59 162 12.0 33.0 0.08 1.87 1.71 100 1012.0
20171021223051 59 183 16.0 33.0 0.09 1.87 1.71 100 1012.1
20171021222552 59 147 17.0 32.0 0.09 1.87 1.71 100 1012.0
20171021222053 59 142 14.0 37.0 0.08 1.87 1.71 100 1011.8
20171021221551 59 155 15.0 37.0 0.08 1.87 1.70 100 1012.0
20171021221051 58 168 16.0 37.0 0.08 1.87 1.70 100 1011.6
20171021220552 58 169 19.0 36.0 0.08 1.87 1.69 100 1011.7
20171021220051 58 103 12.0 36.0 0.08 1.82 1.69 100 1011.7
20171021215551 58 154 15.0 36.0 0.08 1.82 1.67 100 1012.0
20171021215052 58 127 14.0 37.0 0.06 1.82 1.65 100 1011.8
20171021214551 58 155 14.0 37.0 0.06 1.82 1.64 100 1011.7
20171021214052 58 173 20.0 37.0 0.05 1.82 1.64 100 1011.7
20171021213552 58 158 14.0 35.0 0.05 1.82 1.64 100 1011.7
20171021213051 58 148 18.0 31.0 0.06 1.82 1.63 100 1011.8
20171021212551 58 156 18.0 38.0 0.06 1.82 1.63 100 1011.6
20171021212052 58 163 16.0 38.0 0.06 1.82 1.62 100 1011.6
20171021211551 58 166 18.0 38.0 0.06 1.82 1.62 100 1011.6
20171021211051 58 161 16.0 35.0 0.07 1.82 1.62 100 1011.5
20171021210552 58 148 14.0 32.0 0.07 1.82 1.61 100 1011.5
20171021210051 57 145 15.0 32.0 0.06 1.76 1.60 100 1011.6